ギブス彗星

313P/Gibbs (2020)

English version
Home page
Updated on June 9, 2019

---------------------------------------------------------------------

・ プロフィール

・ 軌道要素

Epoch 2020 Apr. 21.0 TT = JDT 2458960.5
T 2020 Apr. 15.16831 TT                                 MPCW
q   2.4188923            (2000.0)            P               Q
n   0.17537437     Peri.  254.60676     +0.98297040     -0.01477647
a   3.1610058      Node   105.97205     +0.07787714     +0.93632454
e   0.2347713      Incl.   10.98336     -0.16644619     +0.35082475
P   5.62
From 96 observations 2003 Sept. 30-2018 July 31, mean residual 0".6.

・ 光度変化

        m1 = 14.5 + 5 logΔ + 10.0 log r            [    ,-680]  (              〜2018年 6月 5日)
        m1 =  5.0 + 5 logΔ + 25   log r(t + 1000)  [-680,-310]  (2018年 6月 5日〜2019年 6月10日)
        m1 = 14.5 + 5 logΔ + 10.0 log r            [-310,    ]  (2019年 6月10日〜              )

---------------------------------------------------------------------

軌道要素はM.P.E.C. 2019-J142に掲載されたものです。
光度グラフはComet for Windowsで作成したものです。

---------------------------------------------------------------------

Copyright(C) Seiichi Yoshida (comet@aerith.net). All rights reserved.